Tracking 33208 objects as of 15-Feb-2026
HD Live streaming from Space Station
objects crossing your sky now

STARLINK-32762

Track STARLINK-32762 now!
10-day predictions
STARLINK-32762 is classified as:


NORAD ID: 62748
Int'l Code: 2025-014P
Perigee: 489.5 km
Apogee: 490.8 km
Inclination: 43.0 °
Period: 94.3 minutes
Semi major axis: 6861 km
RCS: Unknown
Launch date: January 21, 2025
Source: United States (US)
Launch site: AIR FORCE EASTERN TEST RANGE (AFETR)
Your satellite tracking list
Your tracking list is empty




NASA's NSSDC Master Catalog

Two Line Element Set (TLE):
1 62748U 25014P   26046.09178621  .00024559  00000-0  89843-3 0  9991
2 62748  42.9875 285.2833 0000954  17.4345 342.6539 15.27600163 59767
Source of the keplerian elements: AFSPC